Vorticity
nan nan nan nan nan nan nan nan nan nan nan nan nan nan nan nan nan nan nan nan nan nan nan nan nan nan nan nan nan nan nan nan nan nan nan nan nan nan nan nan nan nan nan nan nan nan nan
nan 6 6 6 5 6 6 6 7 7 9 7 7 8 7 8 8 7 6 6 7 7 8 8 11 9 8 6 8 3 7 13 10 14 11 7 7 5 10 9 7 9 9 12 2 2 nan
nan 6 6 6 6 6 6 6 6 8 7 8 9 7 8 8 9 7 8 5 6 10 9 8 10 8 7 7 4 7 10 9 6 6 11 7 5 8 7 8 10 13 10 7 9 6 nan
nan 5 6 6 6 6 6 6 6 6 9 8 8 8 8 8 9 9 8 8 8 10 12 13 8 10 6 8 8 8 12 10 10 7 6 12 5 5 9 9 11 5 11 11 11 4 nan
nan 6 6 6 6 6 6 6 6 6 9 8 8 9 7 9 8 9 9 11 15 14 11 9 6 7 7 8 9 9 9 10 9 12 14 9 6 7 10 9 6 9 9 10 14 5 nan
nan 6 6 6 6 6 6 6 6 7 7 9 9 9 9 10 9 8 13 17 15 9 10 8 4 4 8 7 6 10 7 10 15 12 9 2 6 13 9 16 10 4 6 12 14 10 nan
nan 5 6 6 6 5 6 6 6 7 7 9 8 8 11 11 11 12 15 13 8 9 10 8 7 6 6 10 10 8 7 11 13 9 4 7 16 10 4 7 14 10 8 8 12 13 nan
nan 6 6 6 6 6 6 6 6 6 8 9 9 9 12 13 11 15 12 11 9 6 8 9 9 9 10 9 9 6 7 11 13 14 5 7 9 9 9 9 12 6 6 3 14 13 nan
nan 6 6 6 6 6 6 6 7 7 7 8 9 11 14 15 13 12 11 7 7 9 9 8 10 9 10 7 10 9 9 8 10 16 8 5 9 11 4 9 6 9 9 8 9 6 nan
nan 6 6 5 6 6 6 6 7 7 7 9 11 14 18 14 11 9 10 8 7 8 9 11 11 10 8 8 12 9 9 8 9 9 7 6 14 12 5 7 6 10 10 11 7 7 nan
nan 6 6 6 5 6 6 6 7 7 8 9 13 18 21 13 7 8 11 9 7 8 5 10 12 10 7 11 8 8 8 8 11 7 4 18 11 3 6 7 6 10 12 8 6 8 nan
nan 6 6 5 5 6 7 7 7 7 8 9 15 23 14 7 8 11 10 6 6 12 8 9 10 8 9 9 8 10 10 8 7 7 9 12 7 10 7 10 13 9 3 7 10 8 nan
nan 6 6 5 5 6 7 7 7 7 8 9 20 24 9 7 11 10 4 5 12 9 9 8 10 10 11 9 9 8 10 10 10 6 10 6 10 9 9 9 7 8 6 9 8 9 nan
nan 7 6 5 5 6 7 7 7 8 9 14 23 13 8 9 10 8 6 8 10 8 10 9 10 9 8 9 9 13 9 6 7 7 11 12 7 3 12 11 10 6 9 11 12 8 nan
nan 6 5 6 5 7 6 7 8 8 10 22 18 6 8 11 9 7 8 10 11 8 8 7 7 8 10 11 9 9 9 9 10 9 7 6 9 9 10 8 12 9 9 11 7 8 nan
nan 6 5 6 6 7 6 7 8 8 14 20 12 9 7 10 10 9 9 7 9 9 8 10 10 8 9 8 7 10 10 9 8 10 11 9 5 8 10 7 10 16 9 5 9 12 nan
nan 6 6 6 6 6 6 7 7 8 21 18 7 10 7 9 10 11 10 9 9 11 9 8 8 9 10 10 9 9 8 10 8 8 12 11 8 11 9 12 7 6 6 9 12 8 nan
nan 6 6 6 6 6 7 7 7 11 17 15 10 8 10 10 10 8 10 11 9 11 9 8 10 10 11 9 8 10 9 9 12 8 7 9 8 10 8 9 9 10 9 8 10 8 nan
nan 7 6 5 6 5 6 7 7 13 18 12 9 8 9 12 8 8 11 11 10 10 10 11 9 10 12 10 8 11 10 12 12 9 11 8 6 9 7 6 13 13 8 6 7 12 nan
nan 6 6 5 5 6 6 7 8 19 17 9 8 7 10 11 11 10 9 11 11 10 9 10 10 12 10 8 11 13 7 11 12 9 10 11 13 12 8 8 12 11 11 8 2 2 nan
nan 7 6 5 5 6 6 7 11 22 17 5 10 13 10 7 9 10 9 9 10 7 8 11 12 9 11 9 9 9 9 8 9 11 9 9 10 9 11 12 9 10 13 13 7 3 nan
nan 7 6 5 5 6 6 8 15 21 11 8 12 8 10 11 10 8 8 12 10 7 11 12 9 8 13 10 11 9 7 10 7 8 9 11 12 9 8 11 10 9 11 13 15 12 nan
nan 7 6 6 5 5 7 8 14 18 12 9 7 10 11 9 13 10 10 9 9 11 9 8 8 11 9 6 9 13 12 12 15 10 7 12 11 7 7 8 10 13 20 13 7 16 nan
nan 8 7 6 5 6 7 7 9 17 18 12 11 10 9 12 10 10 10 9 7 11 10 6 12 11 5 10 15 10 9 13 9 9 14 11 7 9 11 8 11 13 12 17 11 9 nan
nan 8 6 6 6 6 7 7 8 8 14 14 12 9 10 11 8 8 9 10 10 10 12 11 10 9 8 13 12 9 7 9 7 10 12 10 10 11 12 7 6 12 12 12 11 11 nan
nan 8 6 6 6 6 7 7 10 10 7 8 11 10 13 10 7 11 8 10 11 9 10 11 9 10 14 12 11 13 9 7 7 7 10 12 10 10 10 10 10 8 9 10 9 11 nan
nan 7 7 6 6 6 6 7 8 10 10 9 8 10 11 10 10 11 10 10 9 11 10 5 8 14 16 12 10 10 12 10 12 10 8 8 11 10 9 6 9 16 13 9 6 10 nan
nan 8 8 7 6 7 7 6 7 9 10 10 10 9 10 9 12 9 10 9 10 10 10 11 12 10 13 11 12 11 12 10 11 12 11 8 8 9 10 8 13 12 10 11 7 8 nan
nan nan nan nan nan nan nan nan nan nan nan nan nan nan nan nan nan nan nan nan nan nan nan nan nan nan nan nan nan nan nan nan nan nan nan nan nan nan nan nan nan nan nan nan nan nan nan
CAPE
4 7 9 6 11 6 15 14 23 21 34 13 16 22 35 15 7 8 6 9 12 10 4 25 17 97 10 0 0 0 1 4 68 94 85 145 77 3 2 17 32 15 59 30 101 7 0
4 5 8 5 9 6 13 13 19 28 33 35 15 17 27 28 18 7 10 9 12 17 0 6 78 29 0 0 0 0 0 0 82 13 49 39 62 3 9 33 39 3 14 60 100 60 22
2 3 5 6 8 10 9 13 5 22 21 34 15 10 22 41 17 29 8 11 90 59 53 48 83 0 0 0 0 0 0 0 0 0 0 15 8 51 2 47 25 11 50 60 94 81 49
1 1 3 7 5 10 7 10 13 6 22 26 15 12 13 23 29 20 18 6 63 61 1 112 93 0 0 0 0 0 0 0 8 48 0 34 12 44 5 2 42 27 28 31 73 89 1
1 1 1 4 6 9 7 12 12 11 19 24 20 8 12 17 23 18 30 18 25 27 7 60 0 0 0 1 30 0 6 39 55 167 55 84 37 39 2 38 30 48 0 0 21 33 1
1 1 1 2 3 7 7 7 8 12 12 22 17 12 11 15 19 8 23 0 0 0 0 0 0 0 0 0 16 50 53 73 66 149 141 82 3 23 0 7 2 0 0 0 0 17 13
0 1 0 1 2 6 8 9 8 14 6 14 16 4 6 10 14 7 0 0 0 0 0 0 0 0 0 22 44 84 60 0 65 99 29 3 2 0 0 0 0 0 0 0 0 0 2
0 1 0 0 1 3 8 8 8 10 11 18 8 4 3 10 6 7 0 0 0 0 0 0 0 0 3 15 4 32 20 40 1 18 0 3 3 0 0 0 0 0 0 0 0 0 0
0 0 0 0 0 1 5 8 9 8 9 8 5 4 2 11 0 0 0 0 0 0 0 2 9 2 19 4 34 7 4 0 2 7 0 0 3 0 1 0 2 0 0 0 0 0 0
0 0 0 0 0 1 3 8 8 7 5 4 7 7 13 1 0 0 0 0 0 0 0 8 9 3 28 1 38 1 5 11 17 23 10 0 6 2 0 0 3 0 0 0 0 0 0
0 0 0 0 0 1 2 7 6 5 9 14 9 6 6 0 0 0 0 0 0 0 0 0 0 0 19 8 11 35 8 43 18 8 2 6 3 18 5 12 0 0 0 0 0 0 0
0 0 0 0 0 1 2 6 4 5 6 10 6 3 1 0 0 0 0 0 0 0 0 0 0 0 7 12 20 4 51 3 30 1 4 11 0 4 6 0 1 0 0 0 0 0 0
0 0 0 0 0 0 2 6 3 4 4 7 4 1 0 0 0 0 0 0 0 0 0 0 10 0 17 19 16 12 11 0 10 6 0 12 16 0 0 13 0 0 0 0 4 0 0
0 0 0 0 0 0 2 2 3 2 2 4 0 0 0 0 0 0 0 0 0 0 0 0 21 5 7 12 11 19 6 5 1 0 4 2 30 0 0 0 2 0 0 0 0 0 0
0 0 0 0 0 0 0 2 1 2 2 2 0 0 0 0 0 0 0 0 0 0 0 0 6 0 1 1 5 6 0 2 0 0 0 0 6 0 0 0 0 1 0 0 0 0 0
0 0 0 0 0 0 0 0 1 1 1 0 0 0 0 0 0 0 0 0 0 0 0 0 0 0 0 1 0 0 0 0 0 0 0 0 0 0 0 0 0 0 0 0 0 0 0
0 0 0 0 0 0 0 0 0 0 0 0 0 0 0 0 0 0 0 0 0 0 0 0 0 0 0 0 0 0 0 0 0 0 0 0 0 2 0 0 6 0 0 0 0 0 0
0 0 0 0 0 0 0 0 0 0 0 0 0 0 0 0 0 0 0 0 0 0 0 0 0 0 0 0 0 0 0 0 0 0 0 0 0 1 0 0 0 0 0 0 0 0 0
0 0 0 0 0 0 0 0 0 0 0 0 0 0 0 0 0 0 0 0 0 0 0 0 0 0 0 0 0 0 0 0 0 0 0 0 0 0 1 0 0 0 0 0 0 0 0
0 0 0 0 0 0 0 0 0 0 0 0 0 0 0 0 0 0 0 0 0 0 0 0 0 0 0 0 0 0 0 0 0 0 0 0 0 0 0 0 0 0 0 0 0 2 0
0 0 0 0 0 0 0 0 0 0 0 0 0 0 0 0 0 0 0 0 0 0 0 0 0 0 0 0 0 0 0 0 0 0 0 0 0 0 0 0 0 0 0 0 3 0 1
0 0 0 0 0 0 0 0 0 0 0 0 0 0 0 0 0 0 0 0 0 0 0 0 0 0 0 0 0 0 0 0 0 0 0 0 0 0 0 0 0 0 0 0 0 0 0
0 0 0 0 0 0 0 0 0 0 0 0 0 0 0 0 0 0 0 0 0 0 0 0 0 0 0 0 0 0 0 0 0 0 0 0 0 0 0 0 0 0 0 0 0 0 0
3 1 1 0 0 0 0 0 0 0 0 0 0 0 0 0 0 0 0 0 0 0 0 0 0 0 0 0 0 0 0 0 0 0 0 0 0 0 0 0 0 0 0 0 0 0 0
5 1 1 0 0 0 0 0 0 0 0 0 0 0 0 0 0 0 0 0 0 0 0 0 0 0 0 0 0 0 0 0 0 0 0 0 0 0 0 0 0 0 0 0 0 0 0
6 2 1 0 0 0 0 0 0 0 0 0 0 0 0 0 0 0 0 0 0 0 0 0 0 0 0 0 0 0 0 0 0 0 0 0 0 0 0 0 0 0 0 0 0 0 0
7 3 2 0 0 0 0 0 0 0 0 0 0 0 0 0 0 0 0 0 0 0 0 0 0 0 0 0 0 0 0 0 0 0 0 0 0 0 0 0 0 0 0 0 0 0 0
8 9 1 0 0 0 1 0 0 0 0 0 0 0 0 0 0 0 0 0 0 0 0 0 0 0 3 2 2 0 0 0 0 0 0 0 0 0 0 0 0 0 0 0 0 0 0
10 12 3 0 0 0 1 0 0 0 0 0 0 0 0 0 0 0 0 0 0 0 0 0 0 1 8 7 3 0 0 0 0 0 0 0 0 0 0 0 0 0 0 0 0 0 0